Terminal Aerodrome Forecast
Issued by NWS

Home | Current Version | Previous Version | Text Only | Print | Product List | Glossary On
Versions: 1 2 3 4 5 6 7 8 9 10 11 12 13 14 15 16 17 18 19 20 21 22 23 24 25 26 27 28 29 30 31 32 33 34 35 36 37 38 39 40 41 42 43 44 45 46 47 48
000
FTAK31 PAFA 071450 AAC
TAFAOM
TAF AMD
PAOM 071450Z 0715/0812 09010KT 1SM -SHSN BR BKN003 OVC010
      TEMPO 0715/0718 1/2SM FG OVC002
     FM071800 09010KT 5SM -SN BR SCT003 BKN010 OVC030
     FM080300 09010KT P6SM SCT035 BKN080
     FM081000 08006KT P6SM SCT080=

USA.gov is the U.S. government's official web portal to all federal, state and local government web resources and services.